Content
SEND FEEDBACK

Daily
Averages
Monthly
Summary
United States of America

PALMETTO, TENNESSEE


Home > North America > United States > Tennessee
Elevation: 77 feet     Latitude: 35 29N     Longitude: 086 35W

WEATHER
 
SELECT A DAY
Number of Records: 53,789;   Date Range: 9/2/10 - 7/31/14
 
SHARE

PRINT THIS DATA

[ ← Previous Day ]
WEATHER ALMANAC - FEBRUARY 24, 2014
[ Next Day → ]
[ °C ]   °F
Weather ElementAverageHighLow
Temperature37.6 °F48.2 °F (1:35 pm)26.6 °F (5:35 am)
Dewpoint18.4 °F33.8 °F (12:55 am)10.4 °F (10:55 am)
Humidity51.8 %86 % (2:55 am)22 % (1:35 pm)
Barometer30.19 in30.26 in (9:35 am)30.10 in (11:55 pm)
Wind Speed6.5 mph16.1 mph (1:55 am)
Weather ElementAverage
Visibility10 mi
Wind DirectionENE (79.9 °)

Weather ElementTotal
Precipitation---
Heating Degree Days27.6 (Base 65)
Averaged from 70 records on February 24, 2014
WEATHER CONDITIONS BREAKOUT
WIND DIRECTION BREAKOUT
WEATHER BY HOUR - FEBRUARY 24, 2014
[ °C ]   °F
Local TimeTemperatureDewpointHumidityBarometerVisibilityWind DirectionWind SpeedGust SpeedPrecipitationEventsConditions
12:55 AM39.2 °F33.8 °F81 %30.14 in10.0 miNorth (360°)12.7 mphOvercast
1:15 AM39.2 °F33.8 °F81 %30.14 in10.0 miNorth (10°)11.5 mphOvercast
1:35 AM37.4 °F32.0 °F81 %30.14 in10.0 miNorth (360°)12.7 mphOvercast
1:55 AM37.4 °F32.0 °F81 %30.15 in10.0 miNorth (10°)16.1 mphOvercast
2:15 AM35.6 °F28.4 °F75 %30.16 in10.0 miNorth (350°)13.8 mphMostly Cloudy
2:35 AM33.8 °F26.6 °F75 %30.16 in10.0 miNNW (340°)10.4 mphMostly Cloudy
2:55 AM30.2 °F26.6 °F86 %30.16 in10.0 miNorth (350°)9.2 mphPartly Cloudy
3:15 AM30.2 °F26.6 °F86 %30.17 in10.0 miNorth (350°)8.1 mphClear
3:35 AM30.2 °F26.6 °F86 %30.18 in10.0 miNorth (360°)8.1 mphClear
3:55 AM30.2 °F24.8 °F80 %30.17 in10.0 miNorth (10°)4.6 mphClear
4:15 AM28.4 °F24.8 °F86 %30.18 in10.0 miNorth (10°)6.9 mphClear
4:35 AM28.4 °F24.8 °F86 %30.19 in10.0 miNorth (10°)5.8 mphClear
4:55 AM28.4 °F24.8 °F86 %30.20 in10.0 miNorth (360°)6.9 mphClear
5:15 AM28.4 °F23.0 °F80 %30.21 in10.0 miNorth (360°)5.8 mphClear
5:35 AM26.6 °F21.2 °F80 %30.22 in10.0 miNorth (360°)6.9 mphClear
5:55 AM26.6 °F21.2 °F80 %30.22 in10.0 miNorth (360°)6.9 mphClear
6:15 AM26.6 °F21.2 °F80 %30.21 in10.0 miNorth (10°)5.8 mphClear
6:35 AM26.6 °F21.2 °F80 %30.22 in10.0 miNorth (10°)6.9 mphClear
6:55 AM28.4 °F21.2 °F74 %30.21 in10.0 miNNE (30°)8.1 mphClear
7:15 AM30.2 °F21.2 °F69 %30.21 in10.0 miNE (40°)6.9 mphClear
7:35 AM30.2 °F21.2 °F69 %30.23 in10.0 miNNE (30°)9.2 mphClear
7:55 AM30.2 °F23.0 °F75 %30.23 in10.0 miNE (40°)9.2 mphClear
8:15 AM32.0 °F23.0 °F69 %30.24 in10.0 miNNE (20°)11.5 mphClear
8:35 AM33.8 °F21.2 °F60 %30.24 in10.0 miNNE (30°)9.2 mphClear
8:55 AM35.6 °F21.2 °F56 %30.25 in10.0 miNNE (30°)6.9 mphClear
9:15 AM37.4 °F21.2 °F52 %30.25 in10.0 miNorth (10°)11.5 mphClear
9:35 AM37.4 °F17.6 °F45 %30.26 in10.0 miNNE (20°)11.5 mphClear
9:55 AM37.4 °F17.6 °F45 %30.26 in10.0 miENE (60°)8.1 mphClear
10:15 AM39.2 °F15.8 °F39 %30.26 in10.0 miENE (70°)10.4 mphClear
10:35 AM41.0 °F14.0 °F33 %30.25 in10.0 miNNE (20°)6.9 mphClear
10:55 AM42.8 °F10.4 °F27 %30.25 in10.0 miENE (60°)10.4 mphClear
11:15 AM42.8 °F10.4 °F27 %30.25 in10.0 miNE (50°)6.9 mphClear
11:35 AM44.6 °F14.0 °F29 %30.24 in10.0 miNNE (30°)8.1 mphClear
11:55 AM44.6 °F12.2 °F27 %30.24 in10.0 miNorth (10°)11.5 mphClear
12:15 PM46.4 °F10.4 °F23 %30.23 in10.0 miNNE (20°)5.8 mphClear
12:35 PM46.4 °F10.4 °F23 %30.22 in10.0 miNNE (20°)9.2 mphClear
12:55 PM46.4 °F10.4 °F23 %30.22 in10.0 miNNE (20°)8.1 mphClear
1:15 PM46.4 °F10.4 °F23 %30.21 in10.0 miENE (60°)5.8 mphClear
1:35 PM48.2 °F10.4 °F22 %30.20 in10.0 miENE (70°)4.6 mphClear
1:55 PM48.2 °F10.4 °F22 %30.20 in10.0 miNorth (10°)8.1 mphClear
2:15 PM48.2 °F10.4 °F22 %30.20 in10.0 miNE (50°)5.8 mphClear
2:35 PM48.2 °F10.4 °F22 %30.19 in10.0 miNE (50°)9.2 mphClear
2:55 PM48.2 °F10.4 °F22 %30.19 in10.0 miNorth (10°)8.1 mphClear
3:15 PM48.2 °F12.2 °F24 %30.18 in10.0 miNNE (30°)6.9 mphClear
3:35 PM48.2 °F12.2 °F24 %30.18 in10.0 miNE (40°)8.1 mphClear
3:55 PM48.2 °F12.2 °F24 %30.18 in10.0 miNorth (10°)5.8 mphClear
4:15 PM48.2 °F12.2 °F24 %30.17 in10.0 miENE (60°)6.9 mphClear
4:35 PM46.4 °F12.2 °F25 %30.17 in10.0 miNE (40°)6.9 mphClear
4:55 PM46.4 °F14.0 °F27 %30.17 in10.0 miENE (70°)5.8 mphClear
5:15 PM46.4 °F12.2 °F25 %30.17 in10.0 miENE (60°)6.9 mphClear
5:35 PM44.6 °F12.2 °F27 %30.16 in10.0 miEast (80°)4.6 mphClear
5:55 PM44.6 °F14.0 °F29 %30.16 in10.0 miENE (60°)3.5 mphClear
6:15 PM44.6 °F14.0 °F29 %30.16 in10.0 miNE (50°)3.5 mphClear
6:35 PM42.8 °F14.0 °F31 %30.16 in10.0 miNE (40°)3.5 mphClear
6:55 PM42.8 °F14.0 °F31 %30.16 in10.0 miNNE (30°)3.5 mphClear
7:15 PM39.2 °F15.8 °F39 %30.15 in10.0 miNNE (20°)3.5 mphClear
7:35 PM39.2 °F15.8 °F39 %30.15 in10.0 miCalmClear
7:55 PM37.4 °F19.4 °F48 %30.14 in10.0 miCalmClear
8:15 PM33.8 °F19.4 °F56 %30.14 in10.0 miNNE (30°)3.5 mphClear
8:35 PM35.6 °F19.4 °F52 %30.14 in10.0 miCalmClear
8:55 PM32.0 °F21.2 °F64 %30.14 in10.0 miCalmClear
9:15 PM32.0 °F19.4 °F60 %30.13 in10.0 miCalmClear
9:35 PM30.2 °F21.2 °F69 %30.14 in10.0 miCalmClear
9:55 PM30.2 °F21.2 °F69 %30.13 in10.0 miCalmClear
10:15 PM32.0 °F21.2 °F64 %30.13 in10.0 miCalmClear
10:35 PM30.2 °F21.2 °F69 %30.12 in10.0 miCalmClear
10:55 PM30.2 °F19.4 °F64 %30.12 in10.0 miNorth (10°)3.5 mphClear
11:15 PM32.0 °F15.8 °F51 %30.13 in10.0 miNorth (10°)4.6 mphClear
11:35 PM33.8 °F15.8 °F48 %30.12 in10.0 miCalmPartly Cloudy
11:55 PM35.6 °F15.8 °F44 %30.10 in10.0 miESE (110°)3.5 mphMostly Cloudy
Hourly data recorded from KTHA, located miles away from Palmetto, Tennessee







STORIES FROM OUR PARTNERS